DB0MW-13 Weather Reports


time (UTC)temp
C
wind
direction
speed
KPH
gust
KPH
rain 1hr
cm
rain 24hr
cm
rain mn
cm
humidity
%
barometer
mb
20260506103000 17 3 4.8 14.5 0.00 0.28 0.13 62 1007.0
20260506102500 17 357 4.8 17.7 0.00 0.28 0.13 63 1006.6
20260506102000 17 349 6.4 12.9 0.00 0.28 0.13 61 1006.6
20260506101500 17 293 6.4 14.5 0.00 0.28 0.13 62 1006.7
20260506101000 17 347 6.4 12.9 0.00 0.28 0.13 61 1006.9
20260506100500 17 7 4.8 9.7 0.00 0.28 0.13 61 1006.9
20260506100000 17 15 6.4 9.7 0.00 0.28 0.13 60 1006.6
20260506095500 17 321 4.8 4.8 0.00 0.28 0.13 60 1006.7
20260506095000 17 5 3.2 8.0 0.00 0.28 0.13 61 1006.7
20260506094500 16 353 4.8 12.9 0.00 0.28 0.13 62 1006.8
20260506094000 16 19 4.8 14.5 0.00 0.28 0.13 63 1006.3
20260506093500 16 357 6.4 4.8 0.00 0.28 0.13 65 1006.7
20260506093000 16 346 6.4 19.3 0.00 0.28 0.13 65 1006.5
20260506092500 16 10 6.4 12.9 0.00 0.28 0.13 65 1006.6
20260506092000 15 7 6.4 12.9 0.00 0.28 0.13 67 1006.8
20260506091501 15 280 4.8 12.9 0.00 0.28 0.13 71 1006.7
20260506091001 15 308 6.4 12.9 0.00 0.28 0.13 72 1007.0
20260506090501 15 341 4.8 14.5 0.00 0.28 0.13 73 1006.7
20260506090001 15 290 3.2 8.0 0.00 0.28 0.13 72 1007.0
20260506085501 15 12 1.6 8.0 0.00 0.28 0.13 72 1006.9
20260506085001 15 343 1.6 8.0 0.00 0.28 0.13 73 1006.8
20260506084501 15 26 3.2 6.4 0.00 0.28 0.13 75 1006.8
20260506084001 15 352 3.2 8.0 0.00 0.28 0.13 76 1006.9
20260506083501 15 337 3.2 14.5 0.00 0.28 0.13 77 1006.6
20260506083001 15 274 1.6 9.7 0.00 0.28 0.13 78 1006.9
20260506082501 15 7 1.6 3.2 0.00 0.28 0.13 78 1006.6
20260506082000 15 358 1.6 6.4 0.00 0.28 0.13 78 1006.5
20260506081500 15 345 3.2 6.4 0.00 0.28 0.13 77 1006.6
20260506081000 15 334 4.8 9.7 0.00 0.28 0.13 78 1006.6
20260506080500 15 284 3.2 9.7 0.00 0.28 0.13 78 1006.6
20260506073500 15 271 3.2 6.4 0.00 0.28 0.13 77 1006.5
20260506073000 15 301 3.2 8.0 0.00 0.28 0.13 74 1006.6
20260506072500 15 352 3.2 8.0 0.00 0.28 0.13 77 1006.5
20260506072000 15 357 3.2 9.7 0.00 0.28 0.13 79 1006.7
20260506071000 15 317 3.2 9.7 0.00 0.28 0.13 80 1006.5
20260506070500 15 324 3.2 6.4 0.00 0.28 0.13 82 1006.5
20260506062501 13 339 3.2 6.4 0.00 0.28 0.13 89 1006.7
20260506062001 13 343 1.6 6.4 0.00 0.28 0.13 90 1006.3
20260506061500 13 289 1.6 3.2 0.00 0.28 0.13 91 1006.7
20260506061000 13 297 3.2 4.8 0.00 0.28 0.13 92 1006.7
20260506060500 13 298 3.2 8.0 0.00 0.28 0.13 92 1006.7
20260506051001 12 319 3.2 4.8 0.00 0.28 0.13 97 1006.6
20260506050500 12 279 3.2 6.4 0.00 0.28 0.13 97 1006.5
20260506045001 12 277 1.6 4.8 0.00 0.28 0.13 97 1006.4
20260506044501 12 1 1.6 8.0 0.00 0.28 0.13 97 1006.6
20260506044001 12 290 1.6 9.7 0.00 0.28 0.13 97 1006.6
20260506043501 12 341 1.6 12.9 0.00 0.28 0.13 97 1006.6
20260506043001 12 340 1.6 9.7 0.00 0.28 0.13 97 1006.4
20260506042501 12 287 1.6 4.8 0.00 0.28 0.13 98 1006.6
20260506042001 12 324 1.6 3.2 0.00 0.28 0.13 98 1006.5
20260506041501 12 308 1.6 3.2 0.00 0.28 0.13 98 1006.6
20260506041001 12 351 1.6 6.4 0.00 0.28 0.13 98 1006.6
20260506040500 12 303 1.6 6.4 0.00 0.28 0.13 98 1006.4
20260506040001 12 342 1.6 8.0 0.00 0.28 0.13 98 1006.6
20260506035500 12 273 1.6 4.8 0.00 0.28 0.13 98 1006.5
20260506035000 12 324 1.6 8.0 0.00 0.28 0.13 99 1006.7
20260506034500 12 294 1.6 4.8 0.00 0.28 0.13 98 1006.9
20260506034000 12 339 1.6 4.8 0.00 0.28 0.13 98 1006.5
20260506033500 12 344 1.6 4.8 0.00 0.28 0.13 98 1006.7
20260506033000 12 268 3.2 3.2 0.00 0.28 0.13 98 1006.4
20260506032500 12 271 1.6 8.0 0.00 0.28 0.13 98 1006.6
20260506032000 12 336 1.6 3.2 0.00 0.28 0.13 98 1006.6
20260506031500 12 322 1.6 3.2 0.00 0.28 0.13 98 1006.5
20260506031000 12 299 1.6 8.0 0.00 0.28 0.13 98 1006.6
20260506030500 12 311 1.6 4.8 0.00 0.28 0.13 98 1006.8
20260506030000 12 308 1.6 6.4 0.00 0.28 0.13 97 1006.7
20260506025500 12 293 1.6 6.4 0.00 0.28 0.13 97 1006.7
20260506025001 12 291 1.6 6.4 0.00 0.28 0.13 97 1006.9
20260506024501 12 267 0.0 4.8 0.00 0.28 0.13 98 1006.9
20260506024001 12 335 0.0 3.2 0.00 0.28 0.13 98 1006.6
20260506023501 12 307 0.0 3.2 0.00 0.28 0.13 98 1006.9
20260506023001 12 326 0.0 1.6 0.00 0.28 0.13 98 1006.8
20260506022501 12 337 0.0 3.2 0.00 0.28 0.13 98 1006.9
20260506022001 12 298 0.0 1.6 0.00 0.28 0.13 98 1006.9
20260506021501 12 291 0.0 3.2 0.00 0.28 0.13 98 1006.8
20260506021001 12 298 0.0 1.6 0.00 0.28 0.13 98 1007.1
20260506020500 12 341 1.6 3.2 0.00 0.28 0.13 98 1007.0
20260506020000 12 337 0.0 3.2 0.00 0.28 0.13 98 1007.1
20260506015500 12 339 0.0 1.6 0.00 0.28 0.13 98 1007.2
20260506015001 12 307 0.0 4.8 0.00 0.28 0.13 98 1006.8
20260506014500 12 3 1.6 3.2 0.00 0.28 0.13 98 1006.9
20260506014000 12 309 1.6 4.8 0.00 0.28 0.13 98 1007.2
20260506013500 12 324 0.0 6.4 0.00 0.28 0.13 98 1007.1
20260506013000 12 323 0.0 3.2 0.00 0.28 0.13 98 1007.1
20260506012500 12 337 1.6 6.4 0.00 0.28 0.13 98 1007.3
20260506012000 12 285 1.6 3.2 0.00 0.25 0.13 98 1007.3
20260506011500 12 329 1.6 3.2 0.00 0.25 0.13 98 1007.4
20260506011000 13 339 0.0 3.2 0.00 0.25 0.13 98 1007.2
20260506010500 13 355 0.0 4.8 0.00 0.25 0.13 98 1007.1
20260506010000 13 333 0.0 4.8 0.00 0.25 0.13 98 1007.2
20260506005500 13 333 0.0 1.6 0.00 0.25 0.13 98 1007.3
20260506005000 13 295 0.0 4.8 0.00 0.25 0.13 98 1007.0
20260506004500 13 281 0.0 3.2 0.00 0.25 0.13 98 1007.1
20260506004000 13 288 0.0 1.6 0.00 0.25 0.13 98 1007.2
20260506003500 13 290 1.6 4.8 0.00 0.25 0.13 98 1007.3
20260506003001 13 311 1.6 3.2 0.00 0.25 0.13 98 1007.3
20260506002501 13 284 1.6 6.4 0.00 0.25 0.13 98 1007.4
20260506002001 13 269 3.2 8.0 0.00 0.25 0.13 98 1007.3
20260506001501 13 326 1.6 6.4 0.00 0.25 0.13 98 1007.1
20260506001001 13 270 1.6 6.4 0.00 0.25 0.13 98 1007.2
20260506000501 13 298 1.6 4.8 0.03 0.25 0.13 98 1007.3
20260506000001 13 256 1.6 6.4 0.03 0.25 0.13 98 1007.3
20260505235501 13 338 3.2 4.8 0.03 0.25 0.13 98 1007.5
20260505235001 13 295 1.6 4.8 0.03 0.25 0.13 98 1007.4
20260505234500 13 323 1.6 3.2 0.05 0.25 0.13 98 1007.5
20260505234001 13 344 3.2 4.8 0.05 0.25 0.13 98 1007.6
20260505233500 13 4 3.2 8.0 0.05 0.25 0.13 98 1007.6
20260505233000 13 0 3.2 6.4 0.05 0.25 0.13 98 1007.6
20260505232501 13 334 1.6 9.7 0.08 0.25 0.13 98 1007.4
20260505232000 13 267 1.6 4.8 0.08 0.25 0.13 98 1007.6
20260505231500 13 325 1.6 3.2 0.10 0.25 0.13 98 1007.6
20260505231000 13 272 1.6 1.6 0.10 0.25 0.10 98 1007.5
20260505230500 13 268 1.6 4.8 0.10 0.23 0.10 98 1007.5
20260505230000 13 291 1.6 3.2 0.10 0.23 0.10 97 1007.6
20260505225500 13 252 1.6 6.4 0.08 0.23 0.08 97 1007.7
20260505225000 13 295 1.6 4.8 0.08 0.23 0.08 97 1007.7
20260505224500 13 359 1.6 3.2 0.08 0.23 0.08 97 1007.8
20260505224000 13 294 1.6 3.2 0.08 0.23 0.08 96 1007.5
20260505223500 14 346 0.0 1.6 0.08 0.20 0.08 96 1007.8
20260505223000 14 354 0.0 6.4 0.05 0.20 0.05 96 1007.7
20260505222500 14 304 1.6 6.4 0.05 0.18 0.05 95 1007.7
20260505222000 14 319 3.2 9.7 0.03 0.18 0.03 95 1007.8
20260505221501 14 258 3.2 6.4 0.00 0.13 0.00 95 1007.7
20260505221001 14 266 3.2 4.8 0.00 0.13 0.00 95 1007.8
20260505220501 14 300 1.6 4.8 0.00 0.13 0.00 95 1007.9
20260505220001 14 297 1.6 6.4 0.00 0.13 0.13 95 1007.8
20260505215501 14 301 1.6 3.2 0.00 0.13 0.13 95 1007.9
20260505215001 14 301 0.0 4.8 0.00 0.13 0.13 95 1007.7
20260505214503 14 340 0.0 4.8 0.00 0.13 0.13 95 1007.9
20260505214001 14 343 0.0 1.6 0.00 0.13 0.13 95 1007.8
20260505213501 14 343 0.0 1.6 0.00 0.13 0.13 95 1008.0
20260505213001 14 343 0.0 1.6 0.00 0.13 0.13 95 1007.8
20260505212500 14 343 0.0 1.6 0.00 0.13 0.13 95 1008.0
20260505212000 14 343 0.0 0.0 0.00 0.13 0.13 95 1007.9
20260505211501 14 343 0.0 0.0 0.00 0.13 0.13 95 1008.0
20260505211001 14 343 0.0 1.6 0.00 0.13 0.13 95 1008.0
20260505210500 14 343 0.0 0.0 0.00 0.13 0.13 95 1008.2
20260505210000 14 343 0.0 0.0 0.00 0.13 0.13 95 1008.1
20260505205502 14 343 0.0 1.6 0.00 0.13 0.13 95 1008.1
20260505205000 14 343 0.0 1.6 0.00 0.13 0.13 95 1007.9
20260505204500 14 343 0.0 1.6 0.00 0.13 0.13 95 1008.0
20260505204000 14 347 0.0 0.0 0.00 0.13 0.13 95 1008.0
20260505203500 15 347 0.0 1.6 0.00 0.13 0.13 95 1008.3
20260505203000 15 347 0.0 0.0 0.00 0.13 0.13 95 1007.8
20260505202000 15 347 0.0 0.0 0.00 0.13 0.13 95 1007.9
20260505201500 15 347 0.0 0.0 0.00 0.13 0.13 95 1008.0
20260505201000 15 347 0.0 1.6 0.00 0.13 0.13 95 1008.0
20260505200500 15 347 0.0 1.6 0.00 0.13 0.13 95 1008.1
20260505200001 15 347 0.0 0.0 0.00 0.13 0.13 95 1007.9
20260505195501 15 347 0.0 1.6 0.00 0.13 0.13 95 1008.1
20260505195001 15 347 0.0 0.0 0.00 0.13 0.13 94 1008.0
20260505194501 15 347 0.0 1.6 0.00 0.13 0.13 94 1008.0
20260505194001 15 347 0.0 0.0 0.00 0.13 0.13 94 1008.1
20260505193501 15 347 0.0 1.6 0.00 0.13 0.13 94 1008.0
20260505193001 15 347 0.0 0.0 0.00 0.13 0.13 93 1007.7
20260505192501 15 348 0.0 1.6 0.00 0.13 0.13 93 1007.8
20260505192001 15 348 0.0 0.0 0.00 0.13 0.13 93 1007.7
20260505191500 15 348 0.0 0.0 0.00 0.13 0.13 92 1007.9
20260505191000 15 348 0.0 3.2 0.00 0.13 0.13 92 1007.7
20260505190500 15 348 0.0 1.6 0.00 0.13 0.13 92 1007.8
20260505190000 15 348 0.0 0.0 0.00 0.13 0.13 91 1007.7
20260505185500 15 348 0.0 1.6 0.00 0.13 0.13 91 1007.5
20260505185000 15 348 0.0 0.0 0.00 0.13 0.13 90 1007.8
20260505184501 15 349 0.0 0.0 0.00 0.13 0.13 90 1007.8
20260505184000 15 348 0.0 1.6 0.00 0.13 0.13 91 1007.7
20260505183500 15 348 0.0 0.0 0.00 0.13 0.13 91 1007.8
20260505183000 15 349 0.0 1.6 0.00 0.13 0.13 91 1007.8
20260505182500 15 349 0.0 1.6 0.00 0.13 0.13 91 1007.8
20260505182000 15 349 0.0 0.0 0.00 0.13 0.13 90 1007.8
20260505181500 15 349 0.0 0.0 0.00 0.13 0.13 90 1007.7
20260505181001 15 349 0.0 1.6 0.00 0.13 0.13 90 1007.7
20260505180501 15 354 0.0 0.0 0.00 0.13 0.13 90 1007.9
20260505180001 15 354 0.0 0.0 0.00 0.13 0.13 89 1007.8
20260505175501 16 354 0.0 0.0 0.00 0.13 0.13 89 1007.7
20260505175001 16 354 0.0 0.0 0.00 0.13 0.13 89 1007.8
20260505174501 16 354 0.0 1.6 0.00 0.13 0.13 89 1008.0
20260505174001 16 1 0.0 1.6 0.00 0.13 0.13 88 1007.9
20260505173501 16 2 0.0 3.2 0.00 0.13 0.13 88 1007.8
20260505173002 16 2 0.0 0.0 0.00 0.13 0.13 88 1008.0
20260505172500 16 2 0.0 1.6 0.00 0.13 0.13 87 1007.9
20260505172001 16 4 0.0 1.6 0.00 0.13 0.13 87 1007.9
20260505171500 16 7 0.0 1.6 0.00 0.13 0.13 87 1008.1
20260505171000 16 9 0.0 1.6 0.00 0.13 0.13 87 1008.1
20260505170501 16 8 0.0 1.6 0.00 0.13 0.13 87 1008.0
20260505170000 16 14 1.6 1.6 0.00 0.13 0.13 86 1008.2
20260505165500 16 9 1.6 3.2 0.03 0.13 0.13 86 1008.0
20260505165000 16 343 1.6 3.2 0.03 0.13 0.13 86 1008.2
20260505164500 16 344 1.6 4.8 0.05 0.13 0.13 85 1008.2
20260505164000 16 20 1.6 3.2 0.05 0.13 0.13 85 1008.0
20260505163500 16 29 1.6 3.2 0.05 0.13 0.13 85 1008.1
20260505163000 16 13 3.2 3.2 0.05 0.13 0.13 85 1008.1
20260505162500 16 26 1.6 4.8 0.05 0.13 0.13 85 1008.1
20260505161500 16 9 3.2 4.8 0.08 0.13 0.13 85 1008.1
20260505161001 16 14 3.2 4.8 0.08 0.13 0.13 85 1008.3
20260505160501 16 10 1.6 8.0 0.08 0.10 0.10 86 1008.3
20260505153000 17 344 1.6 3.2 0.05 0.05 0.05 85 1008.7
20260505152500 17 341 3.2 3.2 0.03 0.05 0.05 85 1008.7
20260505152001 17 262 4.8 8.0 0.03 0.05 0.05 83 1008.7
20260505151500 17 354 4.8 8.0 0.00 0.03 0.03 81 1008.5
20260505151000 18 304 4.8 12.9 0.00 0.03 0.03 80 1008.5
20260505150500 18 347 3.2 8.0 0.00 0.03 0.03 79 1008.4
20260505140501 19 6 3.2 6.4 0.00 0.00 0.00 74 1008.4
20260505125000 21 336 1.6 6.4 0.00 0.00 0.00 52 1008.2
20260505124500 21 312 3.2 6.4 0.00 0.00 0.00 51 1008.2
20260505124000 21 327 1.6 6.4 0.00 0.00 0.00 52 1008.2
20260505123500 21 300 1.6 3.2 0.00 0.00 0.00 52 1008.5
20260505123000 21 268 1.6 3.2 0.00 0.00 0.00 52 1008.4
20260505122500 21 244 1.6 4.8 0.00 0.00 0.00 52 1008.4
20260505122000 21 268 1.6 4.8 0.00 0.00 0.00 52 1008.3
20260505121500 21 2 1.6 8.0 0.00 0.00 0.00 52 1008.6
20260505121000 21 326 1.6 3.2 0.00 0.00 0.00 51 1008.4
20260505120500 21 329 1.6 3.2 0.00 0.00 0.00 50 1008.4
20260505120001 21 235 1.6 3.2 0.00 0.00 0.00 51 1008.8
20260505115501 21 308 1.6 6.4 0.00 0.00 0.00 50 1008.5
20260505115001 22 274 1.6 6.4 0.00 0.00 0.00 51 1008.7
20260505114501 22 252 1.6 6.4 0.00 0.00 0.00 48 1008.6
20260505114001 22 203 3.2 3.2 0.00 0.00 0.00 51 1008.5
20260505113501 22 204 3.2 4.8 0.00 0.00 0.00 51 1008.5
20260505113001 21 212 3.2 6.4 0.00 0.00 0.00 51 1008.6
20260505112501 22 229 3.2 3.2 0.00 0.00 0.00 51 1008.8
20260505112001 22 280 0.0 6.4 0.00 0.00 0.00 51 1008.7
20260505111500 22 322 1.6 3.2 0.00 0.00 0.00 50 1008.6
20260505111001 22 301 1.6 1.6 0.00 0.00 0.00 51 1008.9
20260505110501 22 17 1.6 4.8 0.00 0.00 0.00 50 1008.9